Location: Newark
(40.3820°N, 3.6624°W)
Time: 10:49:00
(UTC+00:00)

ISS - Visible Passes

Search period start: 12 November 2019 00:00
Search period end: 22 November 2019 00:00
Orbit: 412 x 421 km, 51.6° (Epoch: 12 November)

Date Brightness Start Highest point End Pass type
(mag) Time Alt. Az. Time Alt. Az. Time Alt. Az.
12 Nov -3.5 05:34:31 38° W 05:35:25 51° SW 05:38:42 10° SE visible
13 Nov -2.1 04:48:32 32° SE 04:48:32 32° SE 04:50:27 10° SE visible
14 Nov -1.9 05:35:34 17° SW 05:35:34 17° SW 05:37:30 10° S visible
15 Nov -0.9 04:49:44 11° SSE 04:49:44 11° SSE 04:49:55 10° SSE visible
19 Nov -1.2 18:14:47 10° SE 18:14:55 10° SE 18:14:55 10° SE visible
20 Nov -1.8 19:00:16 10° SW 19:01:50 25° SSW 19:01:50 25° SSW visible
21 Nov -2.8 18:12:11 10° SSW 18:15:11 31° SE 18:15:42 29° ESE visible
